SWA4484 KSFO-KMDW

Flight info

Callsign SWA4484
Flight time N/A
Altitude 37000
Route TRUKN2 SYRAH Q128 JSICA KU51K KU54Q HGO AGENT J96 IRK ENDEE8
Aircraft B737/M-SDE2E3GIJ4RWZ/LB1D1

Departure

Time 2026-04-30 19:38
Airport San Francisco International Airport (KSFO)

Arrival

Time N/A
Airport Chicago Midway International Airport (KMDW)
Time Latitude Longitude Altitude Speed Heading
2026-04-30 19:20 37.61655 -122.38129 30 ft 0 kts
2026-04-30 19:28 37.61629 -122.38128 21 ft 2 kts
2026-04-30 19:29 37.61609 -122.38158 24 ft 3 kts 117°
2026-04-30 19:29 37.61599 -122.38134 22 ft 4 kts 117°
2026-04-30 19:30 37.61590 -122.38112 22 ft 0 kts 117°
2026-04-30 19:32 37.61588 -122.38106 22 ft 4 kts 117°
2026-04-30 19:32 37.61543 -122.38056 21 ft 13 kts 169°
2026-04-30 19:33 37.61462 -122.38094 21 ft 13 kts 216°
2026-04-30 19:33 37.61409 -122.38062 21 ft 13 kts 70°
2026-04-30 19:33 37.61478 -122.37997 21 ft 13 kts 30°
2026-04-30 19:33 37.61561 -122.37937 22 ft 14 kts 30°
2026-04-30 19:34 37.61643 -122.37885 23 ft 13 kts 28°
2026-04-30 19:34 37.61666 -122.37785 21 ft 13 kts 98°
2026-04-30 19:34 37.61631 -122.37440 21 ft 26 kts 97°
2026-04-30 19:35 37.61593 -122.37214 21 ft 26 kts 117°
2026-04-30 19:35 37.61513 -122.37015 21 ft 25 kts 117°
2026-04-30 19:35 37.61413 -122.36852 21 ft 23 kts 137°
2026-04-30 19:35 37.61329 -122.36687 22 ft 22 kts 116°
2026-04-30 19:36 37.61256 -122.36517 22 ft 22 kts 118°
2026-04-30 19:36 37.61180 -122.36341 21 ft 23 kts 118°
2026-04-30 19:36 37.61051 -122.35991 21 ft 21 kts 87°
2026-04-30 19:37 37.61148 -122.35874 21 ft 19 kts
2026-04-30 19:37 37.61239 -122.35999 22 ft 28 kts 297°
2026-04-30 19:37 37.61422 -122.36444 23 ft 92 kts 297°
2026-04-30 19:37 37.61821 -122.37399 23 ft 150 kts 297°
2026-04-30 19:38 37.62337 -122.38689 389 ft 173 kts 296°
2026-04-30 19:38 37.62913 -122.40025 1231 ft 171 kts 300°
2026-04-30 19:38 37.63646 -122.41167 2177 ft 164 kts 320°
2026-04-30 19:38 37.64699 -122.41666 2909 ft 168 kts
2026-04-30 19:39 37.65760 -122.40911 3307 ft 196 kts 55°
2026-04-30 19:39 37.66102 -122.39175 3711 ft 217 kts 94°
2026-04-30 19:39 37.66291 -122.37277 4344 ft 224 kts 65°
2026-04-30 19:39 37.66958 -122.35402 4830 ft 242 kts 66°
2026-04-30 19:40 37.67631 -122.33405 5642 ft 248 kts 67°
2026-04-30 19:40 37.68309 -122.31400 6606 ft 251 kts 67°
2026-04-30 19:40 37.68995 -122.29358 7466 ft 254 kts 67°
2026-04-30 19:40 37.69705 -122.27256 8104 ft 270 kts 66°
2026-04-30 19:41 37.70485 -122.25029 8762 ft 282 kts 65°
2026-04-30 19:41 37.71294 -122.22758 9658 ft 285 kts 65°
2026-04-30 19:41 37.72168 -122.20501 10450 ft 291 kts 59°
2026-04-30 19:41 37.73294 -122.18237 10693 ft 317 kts 55°
2026-04-30 19:42 37.74574 -122.15851 11037 ft 337 kts 54°
2026-04-30 19:42 37.75907 -122.13370 11683 ft 345 kts 54°
2026-04-30 19:42 37.77258 -122.10821 12426 ft 351 kts 55°
2026-04-30 19:42 37.78611 -122.08232 13220 ft 355 kts 55°
2026-04-30 19:43 37.79973 -122.05602 13990 ft 360 kts 55°
2026-04-30 19:43 37.81351 -122.02935 14726 ft 364 kts 55°
2026-04-30 19:43 37.82650 -122.00168 15515 ft 369 kts 65°
2026-04-30 19:44 37.83987 -121.93801 17059 ft 379 kts 75°
2026-04-30 19:44 37.84560 -121.90525 17756 ft 385 kts 75°
2026-04-30 19:44 37.85143 -121.87197 18449 ft 389 kts 74°
2026-04-30 19:44 37.85733 -121.83879 19097 ft 392 kts 74°
2026-04-30 19:45 37.86345 -121.80493 19727 ft 397 kts 74°
2026-04-30 19:45 37.86971 -121.77067 20328 ft 403 kts 74°
2026-04-30 19:45 37.87608 -121.73592 20948 ft 407 kts 73°
2026-04-30 19:45 37.88254 -121.70085 21546 ft 411 kts 73°
2026-04-30 19:46 37.88907 -121.66539 22120 ft 416 kts 73°
2026-04-30 19:46 37.89353 -121.64114 22515 ft 419 kts 73°
2026-04-30 19:46 37.90234 -121.59318 23272 ft 425 kts 73°
2026-04-30 19:46 37.90906 -121.55650 23782 ft 430 kts 73°
2026-04-30 19:47 37.91582 -121.51949 24262 ft 433 kts 73°
2026-04-30 19:47 37.92032 -121.49478 24582 ft 435 kts 74°
2026-04-30 19:47 37.92715 -121.45727 25058 ft 439 kts 74°
2026-04-30 19:47 37.93404 -121.41939 25520 ft 443 kts 74°
2026-04-30 19:48 37.94096 -121.38122 25976 ft 446 kts 74°
2026-04-30 19:48 37.94792 -121.34278 26421 ft 450 kts 74°
2026-04-30 19:48 37.95494 -121.30395 26866 ft 453 kts 74°
2026-04-30 19:48 37.96199 -121.26481 27289 ft 457 kts 74°
2026-04-30 19:49 37.96907 -121.22548 27717 ft 460 kts 74°
2026-04-30 19:49 37.98336 -121.14582 28536 ft 467 kts 74°
2026-04-30 19:49 37.99056 -121.10558 28929 ft 470 kts 74°
2026-04-30 19:50 37.99749 -121.06486 29303 ft 473 kts 75°
2026-04-30 19:50 38.00399 -121.02373 29696 ft 477 kts 76°
2026-04-30 19:50 38.01029 -120.98241 30049 ft 480 kts 76°
2026-04-30 19:50 38.01657 -120.94074 30352 ft 483 kts 76°
2026-04-30 19:51 38.02290 -120.89879 30653 ft 485 kts 76°
2026-04-30 19:51 38.02930 -120.85657 30929 ft 488 kts 76°
2026-04-30 19:51 38.03574 -120.81426 31285 ft 489 kts 76°
2026-04-30 19:51 38.04218 -120.77199 31706 ft 488 kts 76°
2026-04-30 19:52 38.04863 -120.72977 32109 ft 487 kts 76°
2026-04-30 19:52 38.05508 -120.68759 32451 ft 488 kts 76°
2026-04-30 19:52 38.06154 -120.64516 32767 ft 489 kts 76°
2026-04-30 19:52 38.06799 -120.60275 33110 ft 489 kts 76°
2026-04-30 19:53 38.07441 -120.56041 33475 ft 489 kts 76°
2026-04-30 19:53 38.08073 -120.51852 33802 ft 489 kts 76°
2026-04-30 19:53 38.08713 -120.47605 34102 ft 490 kts 76°
2026-04-30 19:53 38.09351 -120.43355 34386 ft 490 kts 76°
2026-04-30 19:54 38.09990 -120.39107 34626 ft 490 kts 76°
2026-04-30 19:54 38.10624 -120.34863 34934 ft 490 kts 76°
2026-04-30 19:54 38.11258 -120.30606 35253 ft 488 kts 76°
2026-04-30 19:54 38.11886 -120.26373 35531 ft 488 kts 76°
2026-04-30 19:55 38.12515 -120.22136 35777 ft 489 kts 76°
2026-04-30 19:55 38.13143 -120.17889 36070 ft 488 kts 76°
2026-04-30 19:55 38.13768 -120.13655 36400 ft 486 kts 76°
2026-04-30 19:55 38.14389 -120.09434 36661 ft 487 kts 76°
2026-04-30 19:56 38.15009 -120.05210 36899 ft 487 kts 76°
2026-04-30 19:56 38.15626 -120.00992 36993 ft 485 kts 76°
2026-04-30 19:56 38.16860 -119.92539 37022 ft 487 kts 76°
2026-04-30 19:57 38.18091 -119.84057 37033 ft 490 kts 76°
2026-04-30 19:57 38.19324 -119.75520 37034 ft 491 kts 76°
2026-04-30 19:58 38.20549 -119.66975 37046 ft 491 kts 76°
2026-04-30 19:58 38.21760 -119.58489 37041 ft 491 kts 76°
2026-04-30 19:59 38.22972 -119.49948 37046 ft 490 kts 76°
2026-04-30 20:00 38.24774 -119.37178 37042 ft 488 kts 76°
2026-04-30 20:00 38.25959 -119.28706 37029 ft 486 kts 76°
2026-04-30 20:01 38.27730 -119.15971 37044 ft 489 kts 76°
2026-04-30 20:01 38.28913 -119.07425 37044 ft 491 kts 77°
2026-04-30 20:02 38.30679 -118.94555 37029 ft 492 kts 77°
2026-04-30 20:03 38.32430 -118.81676 37052 ft 491 kts 77°
2026-04-30 20:03 38.33587 -118.73107 37064 ft 490 kts 77°
2026-04-30 20:04 38.34734 -118.64566 37072 ft 489 kts 77°
2026-04-30 20:05 38.36438 -118.51790 37072 ft 486 kts 77°
2026-04-30 20:05 38.38119 -118.39055 37049 ft 484 kts 77°
2026-04-30 20:06 38.39229 -118.30601 37036 ft 483 kts 77°
2026-04-30 20:06 38.40333 -118.22153 37013 ft 483 kts 77°
2026-04-30 20:07 38.41429 -118.13699 37022 ft 483 kts 77°
2026-04-30 20:08 38.43065 -118.01004 37017 ft 485 kts 77°
2026-04-30 20:08 38.44147 -117.92543 37015 ft 487 kts 77°
2026-04-30 20:09 38.45231 -117.84010 37012 ft 487 kts 77°
2026-04-30 20:09 38.46848 -117.71184 37022 ft 488 kts 77°
2026-04-30 20:10 38.48459 -117.58292 37026 ft 489 kts 78°
2026-04-30 20:11 38.50043 -117.45491 37031 ft 488 kts 78°
2026-04-30 20:11 38.51096 -117.36926 37025 ft 488 kts 78°
2026-04-30 20:12 38.52182 -117.24005 37038 ft 490 kts 88°
2026-04-30 20:13 38.52042 -117.15289 37032 ft 491 kts 89°
2026-04-30 20:13 38.51859 -117.06573 37033 ft 491 kts 89°
2026-04-30 20:14 38.51717 -116.97862 37034 ft 490 kts 89°
2026-04-30 20:14 38.51597 -116.89165 37044 ft 489 kts 89°
2026-04-30 20:15 38.51475 -116.80482 37035 ft 489 kts 89°
2026-04-30 20:15 38.51343 -116.71799 37046 ft 489 kts 89°
2026-04-30 20:16 38.51203 -116.63098 37032 ft 490 kts 89°
2026-04-30 20:16 38.51058 -116.54402 37037 ft 490 kts 89°
2026-04-30 20:17 38.50904 -116.45752 37020 ft 491 kts 89°
2026-04-30 20:17 38.50746 -116.37043 37018 ft 491 kts 89°
2026-04-30 20:18 38.50583 -116.28277 37029 ft 491 kts 89°
2026-04-30 20:18 38.50411 -116.19614 37023 ft 491 kts 89°
2026-04-30 20:19 38.50232 -116.10890 37009 ft 491 kts 89°
2026-04-30 20:19 38.50048 -116.02173 37016 ft 491 kts 89°
2026-04-30 20:20 38.50560 -115.93516 37018 ft 488 kts 79°
2026-04-30 20:20 38.51547 -115.84941 37008 ft 488 kts 78°
2026-04-30 20:21 38.52542 -115.76358 37007 ft 488 kts 79°
2026-04-30 20:21 38.53491 -115.67761 37005 ft 489 kts 79°
2026-04-30 20:22 38.54409 -115.59149 36998 ft 489 kts 79°
2026-04-30 20:22 38.55315 -115.50540 37000 ft 489 kts 79°
2026-04-30 20:23 38.56216 -115.41917 37001 ft 490 kts 79°
2026-04-30 20:23 38.57115 -115.33279 36994 ft 490 kts 79°
2026-04-30 20:24 38.58008 -115.24640 36990 ft 491 kts 79°
2026-04-30 20:24 38.58896 -115.15984 36993 ft 490 kts 79°
2026-04-30 20:25 38.60214 -115.03008 37000 ft 491 kts 79°
2026-04-30 20:26 38.61521 -114.90001 37002 ft 492 kts 80°
2026-04-30 20:26 38.62815 -114.76979 37013 ft 492 kts 80°
2026-04-30 20:27 38.64520 -114.59589 37022 ft 493 kts 80°
2026-04-30 20:28 38.66059 -114.43644 37025 ft 493 kts 80°
2026-04-30 20:30 38.68130 -114.21842 37030 ft 494 kts 80°
2026-04-30 20:31 38.70560 -113.95634 37037 ft 497 kts 80°
2026-04-30 20:32 38.72556 -113.73610 37031 ft 499 kts 81°
2026-04-30 20:33 38.73737 -113.60362 37036 ft 499 kts 81°
2026-04-30 20:34 38.74904 -113.47104 37016 ft 500 kts 81°
2026-04-30 20:35 38.76056 -113.33828 37020 ft 500 kts 81°
2026-04-30 20:35 38.77195 -113.20524 37028 ft 501 kts 81°
2026-04-30 20:36 38.77949 -113.11642 37023 ft 502 kts 81°
2026-04-30 20:37 38.79067 -112.98269 37015 ft 504 kts 81°
2026-04-30 20:37 38.79806 -112.89326 37011 ft 504 kts 81°
2026-04-30 20:38 38.80540 -112.80387 37029 ft 505 kts 81°
2026-04-30 20:38 38.81267 -112.71439 37036 ft 505 kts 81°
2026-04-30 20:39 38.82346 -112.57981 37073 ft 507 kts 82°
2026-04-30 20:40 38.83412 -112.44484 37107 ft 507 kts 82°
2026-04-30 20:40 38.84115 -112.35472 37118 ft 508 kts 82°
2026-04-30 20:41 38.85163 -112.21935 37111 ft 508 kts 82°
2026-04-30 20:41 38.85850 -112.12897 37072 ft 509 kts 82°
2026-04-30 20:42 38.86527 -112.03865 37039 ft 508 kts 82°
2026-04-30 20:43 38.87534 -111.90375 37041 ft 509 kts 82°
2026-04-30 20:43 38.88196 -111.81318 37043 ft 510 kts 82°
2026-04-30 20:44 38.89183 -111.67650 37050 ft 511 kts 82°
2026-04-30 20:45 38.90472 -111.49508 37047 ft 511 kts 83°
2026-04-30 20:45 38.91106 -111.40406 37029 ft 511 kts 83°
2026-04-30 20:46 38.92353 -111.22247 37021 ft 510 kts 83°
2026-04-30 20:47 38.93269 -111.08621 37002 ft 510 kts 83°
2026-04-30 20:48 38.94169 -110.94993 36996 ft 511 kts 83°
2026-04-30 20:48 38.94762 -110.85875 36989 ft 512 kts 83°
2026-04-30 20:49 38.95348 -110.76763 36989 ft 513 kts 84°
2026-04-30 20:50 38.96216 -110.63057 36977 ft 514 kts 84°
2026-04-30 20:50 38.96787 -110.53896 36975 ft 515 kts 84°
2026-04-30 20:51 38.97352 -110.44723 36969 ft 515 kts 84°
2026-04-30 20:51 38.98185 -110.30963 36946 ft 515 kts 84°
2026-04-30 20:52 38.98732 -110.21770 36955 ft 515 kts 84°
2026-04-30 20:53 38.99540 -110.07990 36968 ft 516 kts 84°
2026-04-30 20:53 39.00039 -109.98784 36971 ft 516 kts 87°
2026-04-30 20:54 39.00069 -109.84923 36990 ft 517 kts 90°
2026-04-30 20:55 38.99932 -109.71106 36992 ft 518 kts 90°
2026-04-30 20:55 38.99879 -109.61835 36973 ft 519 kts 90°
2026-04-30 20:56 38.99813 -109.47924 36964 ft 519 kts 90°
2026-04-30 20:57 38.99729 -109.33997 36946 ft 519 kts 90°
2026-04-30 20:57 38.99661 -109.24718 36935 ft 519 kts 90°
2026-04-30 20:58 38.99546 -109.10787 36937 ft 520 kts 91°
2026-04-30 20:58 38.99459 -109.01483 36928 ft 521 kts 91°
2026-04-30 20:59 38.99316 -108.87500 36979 ft 523 kts 91°
2026-04-30 21:00 38.99209 -108.78072 37234 ft 530 kts 91°
2026-04-30 21:00 38.99095 -108.68640 37813 ft 528 kts 91°
2026-04-30 21:01 38.98975 -108.59202 38375 ft 526 kts 91°
2026-04-30 21:01 38.98912 -108.54498 38678 ft 524 kts 91°
2026-04-30 21:01 38.98778 -108.45137 39029 ft 522 kts 91°
2026-04-30 21:02 38.98709 -108.40460 39004 ft 525 kts 91°
2026-04-30 21:02 38.98566 -108.31063 38992 ft 526 kts 91°
2026-04-30 21:03 38.98417 -108.21733 38974 ft 526 kts 91°
2026-04-30 21:03 38.98259 -108.12337 38999 ft 525 kts 92°
2026-04-30 21:04 38.98092 -108.02937 38989 ft 525 kts 92°
2026-04-30 21:04 38.97829 -107.88892 38998 ft 524 kts 92°
2026-04-30 21:05 38.97644 -107.79517 38991 ft 525 kts 92°
2026-04-30 21:05 38.97451 -107.70124 38977 ft 526 kts 92°
2026-04-30 21:06 38.97250 -107.60711 38966 ft 527 kts 92°
2026-04-30 21:06 38.97043 -107.51287 38965 ft 528 kts 92°
2026-04-30 21:07 38.96830 -107.41849 38962 ft 528 kts 92°
2026-04-30 21:07 38.96606 -107.32392 38959 ft 529 kts 92°
2026-04-30 21:08 38.96373 -107.22938 38951 ft 529 kts 92°
2026-04-30 21:08 38.96132 -107.13483 38954 ft 530 kts 92°
2026-04-30 21:09 38.95884 -107.04004 38978 ft 531 kts 94°
2026-04-30 21:09 38.95625 -106.94520 39020 ft 530 kts 92°
2026-04-30 21:10 38.95409 -106.86636 39003 ft 530 kts 92°
2026-04-30 21:10 38.95144 -106.77143 38974 ft 532 kts 92°
2026-04-30 21:11 38.94860 -106.67634 38960 ft 532 kts 93°
2026-04-30 21:11 38.94574 -106.58119 38974 ft 533 kts 93°
2026-04-30 21:12 38.94279 -106.48589 38980 ft 535 kts 93°
2026-04-30 21:12 38.93978 -106.39066 39042 ft 535 kts 93°
2026-04-30 21:13 38.93667 -106.29511 39086 ft 535 kts 93°
2026-04-30 21:13 38.93349 -106.19968 39142 ft 531 kts 93°
2026-04-30 21:14 38.93026 -106.10476 39157 ft 533 kts 93°
2026-04-30 21:14 38.92692 -106.00948 39133 ft 535 kts 94°
2026-04-30 21:15 38.92351 -105.91396 39116 ft 537 kts 94°
2026-04-30 21:15 38.92001 -105.81810 39092 ft 538 kts 94°
2026-04-30 21:16 38.91642 -105.72203 39078 ft 539 kts 94°
2026-04-30 21:16 38.91275 -105.62584 39085 ft 539 kts 94°
2026-04-30 21:17 38.90900 -105.53032 39109 ft 539 kts 94°
2026-04-30 21:17 38.90517 -105.43418 39123 ft 539 kts 94°
2026-04-30 21:18 38.90124 -105.33758 39143 ft 539 kts 94°
2026-04-30 21:18 38.89726 -105.24214 39161 ft 538 kts 94°
2026-04-30 21:19 38.89320 -105.14618 39161 ft 538 kts 94°
2026-04-30 21:19 38.88911 -105.05136 39185 ft 538 kts 95°
2026-04-30 21:20 38.88487 -104.95557 39168 ft 536 kts 94°
2026-04-30 21:20 38.88059 -104.86004 39181 ft 536 kts 94°
2026-04-30 21:21 38.87624 -104.76446 39203 ft 537 kts 94°
2026-04-30 21:22 38.86955 -104.62088 39212 ft 537 kts 94°
2026-04-30 21:23 38.86035 -104.42947 39203 ft 537 kts 95°
2026-04-30 21:23 38.85324 -104.28584 39190 ft 538 kts 95°
2026-04-30 21:24 38.84840 -104.19011 39172 ft 538 kts 95°
2026-04-30 21:24 38.84346 -104.09423 39161 ft 538 kts 95°
2026-04-30 21:25 38.83594 -103.95060 39173 ft 538 kts 95°
2026-04-30 21:26 38.82824 -103.80699 39171 ft 538 kts 95°
2026-04-30 21:27 38.82037 -103.66342 39166 ft 537 kts 95°
2026-04-30 21:27 38.82305 -103.56794 39173 ft 536 kts 80°
2026-04-30 21:28 38.84218 -103.42676 39170 ft 536 kts 78°
2026-04-30 21:29 38.86106 -103.28535 39171 ft 536 kts 79°
2026-04-30 21:30 38.89066 -103.04896 39174 ft 537 kts 79°
2026-04-30 21:31 38.91989 -102.81208 39171 ft 538 kts 79°
2026-04-30 21:32 38.93720 -102.66978 39172 ft 538 kts 79°
2026-04-30 21:32 38.94867 -102.57462 39171 ft 539 kts 79°
2026-04-30 21:33 38.96574 -102.43182 39179 ft 540 kts 80°
2026-04-30 21:34 38.97707 -102.33641 39182 ft 540 kts 80°
2026-04-30 21:34 38.99387 -102.19327 39184 ft 541 kts 80°
2026-04-30 21:35 39.00501 -102.09763 39175 ft 541 kts 80°
2026-04-30 21:35 39.01598 -102.00261 39184 ft 541 kts 80°
2026-04-30 21:36 39.02697 -101.90683 39176 ft 541 kts 80°
2026-04-30 21:37 39.04869 -101.71519 39181 ft 541 kts 80°
2026-04-30 21:37 39.05944 -101.61937 39176 ft 541 kts 80°
2026-04-30 21:38 39.07010 -101.52359 39183 ft 541 kts 81°
2026-04-30 21:38 39.08068 -101.42771 39187 ft 541 kts 81°
2026-04-30 21:39 39.09119 -101.33180 39185 ft 541 kts 81°
2026-04-30 21:39 39.10163 -101.23574 39197 ft 541 kts 81°
2026-04-30 21:40 39.11199 -101.13978 39198 ft 541 kts 81°
2026-04-30 21:40 39.12229 -101.04351 39195 ft 542 kts 81°
2026-04-30 21:41 39.13247 -100.94749 39193 ft 542 kts 81°
2026-04-30 21:41 39.14262 -100.85124 39195 ft 542 kts 81°
2026-04-30 21:42 39.15268 -100.75500 39195 ft 543 kts 81°
2026-04-30 21:42 39.16259 -100.65914 39186 ft 543 kts 81°
2026-04-30 21:43 39.17089 -100.57839 39192 ft 543 kts 81°
2026-04-30 21:43 39.18233 -100.46618 39183 ft 544 kts 81°
2026-04-30 21:44 39.19211 -100.36947 39185 ft 544 kts 81°
2026-04-30 21:44 39.20180 -100.27276 39187 ft 544 kts 81°
2026-04-30 21:45 39.21142 -100.17592 39178 ft 545 kts 81°
2026-04-30 21:45 39.22096 -100.07903 39185 ft 545 kts 81°
2026-04-30 21:46 39.23044 -99.98201 39178 ft 545 kts 81°
2026-04-30 21:46 39.23982 -99.88505 39176 ft 545 kts 82°
2026-04-30 21:47 39.24912 -99.78803 39175 ft 545 kts 82°
2026-04-30 21:47 39.25835 -99.69098 39177 ft 545 kts 82°
2026-04-30 21:48 39.26751 -99.59375 39180 ft 545 kts 82°
2026-04-30 21:48 39.27658 -99.49660 39170 ft 545 kts 82°
2026-04-30 21:49 39.28557 -99.39934 39175 ft 545 kts 82°
2026-04-30 21:49 39.29448 -99.30212 39171 ft 545 kts 82°
2026-04-30 21:50 39.30332 -99.20480 39168 ft 545 kts 82°
2026-04-30 21:50 39.31060 -99.12390 39167 ft 546 kts 82°
2026-04-30 21:51 39.31929 -99.02650 39161 ft 546 kts 82°
2026-04-30 21:51 39.32790 -98.92907 39158 ft 546 kts 82°
2026-04-30 21:52 39.33642 -98.83167 39162 ft 545 kts 82°
2026-04-30 21:52 39.34487 -98.73418 39160 ft 546 kts 82°
2026-04-30 21:53 39.35324 -98.63666 39156 ft 546 kts 82°
2026-04-30 21:53 39.36152 -98.53912 39158 ft 546 kts 83°
2026-04-30 21:54 39.36972 -98.44160 39155 ft 546 kts 83°
2026-04-30 21:54 39.37780 -98.34452 39144 ft 546 kts 83°
2026-04-30 21:55 39.38590 -98.24634 39141 ft 545 kts 83°
2026-04-30 21:55 39.39378 -98.14959 39140 ft 545 kts 83°
2026-04-30 21:56 39.40164 -98.05203 39136 ft 545 kts 83°
2026-04-30 21:56 39.40942 -97.95450 39138 ft 545 kts 83°
2026-04-30 21:57 39.41713 -97.85695 39143 ft 545 kts 83°
2026-04-30 21:57 39.42476 -97.75934 39139 ft 546 kts 83°
2026-04-30 21:58 39.43230 -97.66168 39142 ft 546 kts 83°
2026-04-30 21:58 39.43977 -97.56396 39133 ft 546 kts 83°
2026-04-30 21:59 39.44716 -97.46626 39137 ft 546 kts 83°
2026-04-30 22:00 39.45809 -97.31962 39128 ft 546 kts 83°
2026-04-30 22:00 39.46882 -97.17294 39125 ft 546 kts 83°
2026-04-30 22:01 39.47588 -97.07503 39117 ft 546 kts 83°
2026-04-30 22:01 39.48288 -96.97701 39123 ft 547 kts 83°
2026-04-30 22:02 39.48979 -96.87908 39121 ft 547 kts 84°
2026-04-30 22:02 39.49659 -96.78098 39112 ft 547 kts 84°
2026-04-30 22:03 39.50330 -96.68307 39118 ft 546 kts 84°
2026-04-30 22:03 39.50997 -96.58503 39116 ft 547 kts 84°
2026-04-30 22:04 39.51655 -96.48692 39122 ft 546 kts 84°
2026-04-30 22:05 39.52626 -96.33973 39103 ft 546 kts 84°
2026-04-30 22:05 39.53263 -96.24162 39104 ft 546 kts 84°
2026-04-30 22:06 39.53892 -96.14346 39101 ft 546 kts 84°
2026-04-30 22:06 39.54817 -95.99652 39109 ft 546 kts 84°
2026-04-30 22:07 39.55424 -95.89851 39101 ft 546 kts 84°
2026-04-30 22:07 39.56022 -95.80058 39099 ft 545 kts 84°
2026-04-30 22:08 39.56612 -95.70258 39098 ft 545 kts 84°
2026-04-30 22:08 39.57194 -95.60459 39096 ft 545 kts 84°
2026-04-30 22:09 39.57768 -95.50649 39097 ft 545 kts 84°
2026-04-30 22:09 39.58333 -95.40852 39093 ft 545 kts 84°
2026-04-30 22:10 39.58890 -95.31050 39091 ft 545 kts 85°
2026-04-30 22:10 39.59436 -95.21307 39089 ft 545 kts 85°
2026-04-30 22:11 39.60240 -95.06617 39090 ft 544 kts 85°
2026-04-30 22:12 39.60770 -94.96828 39094 ft 544 kts 85°
2026-04-30 22:12 39.61773 -94.87119 39083 ft 540 kts 70°
2026-04-30 22:13 39.63992 -94.77843 39097 ft 538 kts 68°
2026-04-30 22:13 39.66300 -94.68588 39094 ft 539 kts 68°
2026-04-30 22:14 39.68533 -94.59294 39081 ft 540 kts 69°
2026-04-30 22:14 39.70718 -94.49968 39073 ft 540 kts 69°
2026-04-30 22:15 39.72896 -94.40632 39071 ft 539 kts 69°
2026-04-30 22:15 39.75070 -94.31298 39066 ft 539 kts 69°
2026-04-30 22:16 39.77233 -94.21981 39076 ft 538 kts 69°
2026-04-30 22:17 39.81515 -94.03384 39070 ft 537 kts 69°
2026-04-30 22:17 39.84703 -93.89419 39060 ft 536 kts 69°
2026-04-30 22:18 39.87882 -93.75422 39062 ft 535 kts 70°
2026-04-30 22:19 39.91005 -93.61573 39060 ft 533 kts 70°
2026-04-30 22:20 39.94119 -93.47684 39065 ft 531 kts 70°
2026-04-30 22:20 39.97210 -93.33806 39056 ft 531 kts 70°
2026-04-30 22:21 39.99258 -93.24565 39063 ft 531 kts 70°
2026-04-30 22:21 40.01302 -93.15316 39061 ft 531 kts 70°
2026-04-30 22:22 40.03337 -93.06053 39066 ft 531 kts 70°
2026-04-30 22:22 40.05367 -92.96769 39063 ft 532 kts 70°
2026-04-30 22:23 40.07382 -92.87517 38947 ft 524 kts 70°
2026-04-30 22:23 40.08371 -92.82961 38376 ft 523 kts 70°
2026-04-30 22:23 40.09368 -92.78367 37530 ft 527 kts 70°
2026-04-30 22:24 40.10373 -92.73733 36641 ft 534 kts 70°
2026-04-30 22:24 40.11388 -92.69036 35783 ft 539 kts 70°
2026-04-30 22:24 40.12407 -92.64305 34976 ft 543 kts 70°
2026-04-30 22:24 40.13432 -92.59535 34184 ft 547 kts 70°
2026-04-30 22:25 40.14439 -92.54726 33331 ft 549 kts 71°
2026-04-30 22:25 40.15408 -92.49918 32726 ft 545 kts 72°
2026-04-30 22:25 40.16345 -92.45161 32225 ft 537 kts 72°
2026-04-30 22:25 40.17266 -92.40453 31699 ft 531 kts 72°
2026-04-30 22:26 40.19096 -92.31187 31114 ft 525 kts 72°
2026-04-30 22:26 40.20022 -92.26525 31068 ft 531 kts 72°
2026-04-30 22:27 40.21871 -92.17178 31038 ft 528 kts 72°
2026-04-30 22:27 40.24600 -92.03251 31045 ft 527 kts 72°
2026-04-30 22:28 40.27318 -91.89273 31043 ft 529 kts 72°
2026-04-30 22:29 40.30922 -91.70590 31023 ft 528 kts 73°
2026-04-30 22:31 40.37046 -91.39749 31018 ft 521 kts 65°
2026-04-30 22:32 40.44119 -91.17956 31019 ft 520 kts 63°
2026-04-30 22:33 40.50911 -90.95941 30194 ft 515 kts 64°
2026-04-30 22:34 40.54807 -90.83127 28889 ft 493 kts 64°
2026-04-30 22:35 40.57355 -90.74751 28062 ft 494 kts 64°
2026-04-30 22:36 40.62368 -90.58187 26521 ft 483 kts 64°
2026-04-30 22:36 40.63600 -90.54098 26138 ft 480 kts 64°
2026-04-30 22:37 40.67273 -90.41875 25021 ft 476 kts 63°
2026-04-30 22:37 40.68484 -90.37836 24650 ft 474 kts 63°
2026-04-30 22:37 40.70889 -90.29786 23915 ft 470 kts 64°
2026-04-30 22:38 40.73262 -90.21803 23140 ft 465 kts 64°
2026-04-30 22:38 40.75594 -90.13928 22403 ft 457 kts 64°
2026-04-30 22:39 40.76742 -90.10045 22059 ft 452 kts 64°
2026-04-30 22:39 40.80117 -89.98604 21046 ft 440 kts 64°
2026-04-30 22:40 40.83401 -89.87428 20068 ft 430 kts 65°
2026-04-30 22:41 40.86606 -89.76475 19114 ft 422 kts 65°
2026-04-30 22:41 40.89271 -89.69674 18395 ft 414 kts 54°
2026-04-30 22:42 40.95070 -89.56964 16957 ft 392 kts 55°
2026-04-30 22:43 40.97786 -89.50797 16312 ft 384 kts 55°
2026-04-30 22:43 41.00440 -89.44746 15662 ft 378 kts 56°
2026-04-30 22:44 41.03078 -89.38721 14970 ft 378 kts 56°
2026-04-30 22:45 41.08289 -89.26783 13512 ft 366 kts 56°
2026-04-30 22:45 41.10788 -89.21041 12802 ft 356 kts 56°
2026-04-30 22:46 41.13241 -89.15402 12139 ft 351 kts 56°
2026-04-30 22:47 41.18059 -89.04282 10846 ft 341 kts 56°
2026-04-30 22:47 41.20373 -88.98922 10211 ft 328 kts 56°
2026-04-30 22:48 41.22442 -88.93722 9939 ft 305 kts 60°
2026-04-30 22:49 41.24984 -88.86357 9291 ft 285 kts 60°
2026-04-30 22:49 41.27487 -88.79241 8817 ft 283 kts 60°
2026-04-30 22:50 41.30819 -88.69753 8206 ft 283 kts 61°
2026-04-30 22:51 41.32480 -88.65012 7879 ft 282 kts 61°
2026-04-30 22:51 41.34124 -88.60309 7577 ft 280 kts 61°
2026-04-30 22:52 41.34943 -88.57962 7426 ft 278 kts 61°
2026-04-30 22:52 41.36561 -88.53325 7128 ft 275 kts 61°
2026-04-30 22:53 41.38425 -88.48976 6894 ft 265 kts 47°
2026-04-30 22:53 41.40760 -88.45246 6728 ft 262 kts 45°
2026-04-30 22:53 41.41931 -88.43379 6647 ft 264 kts 46°
2026-04-30 22:54 41.44292 -88.39554 6473 ft 268 kts 46°
2026-04-30 22:55 41.47805 -88.33793 6123 ft 267 kts 46°
2026-04-30 22:55 41.50119 -88.29970 5990 ft 263 kts 47°
2026-04-30 22:56 41.51611 -88.25437 5993 ft 273 kts 69°
2026-04-30 22:56 41.53263 -88.18164 5990 ft 276 kts 69°
2026-04-30 22:57 41.54408 -88.13233 5993 ft 276 kts 69°
2026-04-30 22:57 41.55488 -88.08602 5970 ft 249 kts 68°
2026-04-30 22:58 41.56500 -88.04271 5978 ft 241 kts 68°
2026-04-30 22:59 41.59159 -87.99089 5988 ft 226 kts 31°
2026-04-30 22:59 41.62861 -87.95020 5485 ft 235 kts 37°